ePrivacy and GPDR Cookie Consent by Cookie Consent
EmailTwitter


Surface observations / France / LFBO (07630)

Regions: Quebec | Canada | USA | Europe | France | UK | Elsewhere
Station
Display
Info & Location for LFBO (07630) | Help decoding METAR

Weather Conditions observed on 2022/10/04 at 00:30 UTC at TOULOUSE/BLAGNAC, FR (LFBO)

Temperature: 13.0 Celsius.

Dewpoint: 11.0 Celsius.

Relative Humidity: 88%

Winds: South-southwest at 6 km/h or 3 knots.

Mean Sea level Pressure: 102.10 kilopascals.

Coded METAR:

LFBO 040030Z AUTO 20003KT CAVOK 13/11 Q1021 NOSIG=